Location: Observatory
(52.1446°N, 0.4624°W)
Time: 01:16:44
(UTC+01:00)

ISS - Pass Details

Date: 31 March 2019
Orbit: 408 x 410 km, 51.6° (Epoch: 21 April)

Event Time Altitude Azimuth Distance (km) Brightness Sun altitude
Rises 21:34:14 0° 280° (W) 2,340 1.3 -18.0°
Reaches altitude 10° 21:36:21 10° 276° (W) 1,476 -0.1 -18.3°
Maximum altitude 21:39:35 54° 198° (SSW) 503 -3.6 -18.7°
Enters shadow 21:39:41 54° 191° (S) 505 -3.6 -18.7°
